Theta_e
322 321 321 321 321 321 321 321 321 320 319 319 319 319 320 321 321 320 319 319 318 317 316 315 316 316 317 317 319 319 320 320 319 319 319 320 320 322 322 323 323 323 322 322 321 321 320 319 318 317 316 316 315 315 315 315 316 315 315 315 315 315 315 314 314 313 313 313 313
321 321 322 321 321 321 321 321 320 320 319 320 319 320 320 320 319 318 316 315 315 314 314 314 314 315 315 315 316 317 317 317 317 316 316 316 317 318 319 319 319 319 320 320 319 319 318 317 316 315 315 314 314 314 314 314 314 314 313 313 313 313 313 312 312 312 311 311 311
321 322 322 322 322 321 320 320 320 320 320 320 320 320 319 319 317 316 314 313 314 314 313 313 313 314 314 313 314 314 314 315 315 314 314 313 314 315 316 316 316 316 316 316 316 316 316 315 314 313 313 313 312 312 312 313 313 313 312 311 312 311 311 310 311 310 310 310 309
322 322 322 321 321 320 319 319 319 320 320 319 319 318 317 316 315 314 313 312 312 312 312 312 312 313 313 312 312 312 312 312 312 312 312 311 311 312 313 313 313 313 313 313 313 313 313 313 312 311 311 311 310 310 311 311 311 310 310 310 310 310 309 309 309 309 309 308 308
323 323 323 322 321 320 320 320 319 319 318 317 316 315 315 314 313 312 311 310 310 310 311 311 311 311 311 311 311 310 310 310 310 310 309 309 309 309 309 310 309 310 310 310 311 311 311 311 310 309 309 309 309 309 310 310 309 309 309 308 308 308 308 308 308 308 308 307 307
323 324 324 323 320 319 319 319 318 318 317 316 314 313 312 311 310 309 309 308 308 309 309 309 309 309 309 309 309 309 308 308 308 308 307 307 307 307 307 307 307 307 308 308 308 309 309 309 308 307 307 307 307 308 308 309 308 307 307 307 307 307 307 307 307 307 306 306 306
316 317 317 317 316 316 316 316 316 315 314 313 312 310 309 309 308 308 307 308 307 307 307 307 307 307 307 307 307 306 306 306 306 306 306 305 305 304 304 304 304 304 304 305 305 306 306 306 305 305 305 305 305 305 306 307 307 306 305 305 305 305 306 306 306 306 305 305 305
310 310 310 311 311 311 311 311 311 310 309 309 308 308 307 307 306 306 306 306 305 305 305 305 305 305 305 305 304 304 304 304 304 304 303 303 303 302 302 302 302 301 301 302 302 302 303 303 303 303 302 302 302 303 304 304 304 304 303 302 303 303 304 304 304 304 304 303 303
307 307 307 307 307 308 308 308 308 307 306 306 305 306 305 305 305 304 304 303 303 303 304 303 303 303 303 303 303 303 303 302 302 302 302 302 301 301 301 300 300 299 299 299 300 300 300 301 301 300 300 300 300 301 301 302 302 301 301 301 301 301 302 302 302 302 302 301 301
304 304 304 305 305 305 305 305 304 304 304 303 304 304 304 304 303 303 303 302 303 302 302 301 301 301 301 301 301 301 301 301 300 300 300 300 300 299 299 299 299 298 298 298 298 298 298 298 298 298 298 298 298 298 299 299 299 299 299 299 300 300 300 300 300 300 300 299 299
301 302 302 302 302 303 303 302 302 302 302 301 302 302 302 302 302 302 302 301 301 301 301 301 300 300 299 299 299 300 300 299 299 298 298 298 298 298 297 297 297 297 297 297 297 297 297 296 296 296 296 297 297 297 297 297 297 297 297 298 298 298 298 298 298 298 298 297 297
300 300 300 300 301 301 301 300 300 300 300 300 300 300 300 301 301 301 301 300 300 299 299 300 299 299 298 298 298 298 298 298 297 297 296 296 296 296 296 296 296 296 296 296 296 296 296 295 295 295 295 295 296 296 296 296 296 296 296 296 296 296 296 296 297 297 297 297 297
298 299 299 299 299 299 298 298 298 298 298 298 299 299 299 299 300 300 300 299 298 298 298 298 298 298 297 297 297 297 297 297 296 296 295 295 295 295 294 294 294 294 295 295 295 295 294 294 294 294 294 294 295 295 295 294 294 294 294 294 294 295 295 295 296 296 296 296 296
297 297 297 297 297 297 296 296 296 296 296 297 297 298 298 298 298 298 298 298 297 297 297 297 297 297 297 297 297 296 296 295 295 295 294 294 294 293 293 293 293 293 293 293 293 293 293 293 293 293 293 293 293 293 293 293 293 293 293 293 293 293 293 294 294 295 295 294 294
295 295 295 295 295 295 295 294 294 294 294 295 296 296 296 297 297 297 297 297 296 296 296 295 296 296 296 296 295 295 295 294 294 293 293 293 293 292 292 292 292 292 292 292 291 292 291 291 292 291 291 291 291 291 292 292 292 292 292 292 292 292 292 293 293 293 293 293 293
293 293 294 294 293 293 293 293 293 293 293 293 294 295 295 295 296 296 296 296 295 295 295 294 294 295 295 295 294 294 294 293 293 292 292 292 291 291 291 291 291 291 291 290 290 290 290 290 290 290 290 290 290 291 291 291 291 291 291 291 291 291 292 292 292 292 293 292 292
292 292 292 292 292 292 292 292 292 292 292 292 293 293 294 294 295 295 295 295 294 294 294 293 294 294 293 293 293 293 293 292 292 291 291 291 290 290 290 290 290 290 290 290 290 289 289 290 290 290 290 290 290 290 290 290 290 290 290 290 290 291 291 292 292 292 292 292 292
291 291 291 291 291 291 291 291 291 291 291 291 291 292 292 293 293 294 294 294 294 293 293 293 293 293 292 292 292 292 292 291 291 291 290 290 290 290 290 290 290 290 290 289 289 289 289 290 290 290 290 289 289 289 289 289 289 289 290 290 290 290 291 291 292 291 291 292 292
290 290 290 290 290 290 290 290 290 290 290 290 290 291 291 292 292 292 293 293 293 293 292 292 292 292 291 291 291 291 291 291 290 290 290 290 290 290 289 290 290 290 290 289 289 290 290 290 290 289 289 289 289 289 289 289 289 289 289 289 290 290 290 291 291 291 291 291 291
289 289 289 289 289 289 289 289 290 290 290 290 290 290 290 290 291 291 292 292 293 292 292 291 291 291 291 290 290 290 290 290 290 290 290 290 289 289 290 290 290 290 290 290 290 290 290 290 289 289 289 289 289 289 289 289 289 289 289 289 289 290 290 290 291 291 291 291 291
288 288 288 288 288 288 288 288 289 289 289 289 289 289 289 289 290 291 291 292 292 292 292 292 291 290 290 290 289 289 289 290 289 289 289 289 289 289 289 290 290 290 290 290 290 290 290 290 290 290 290 289 289 289 289 289 289 289 289 289 289 289 290 290 290 290 290 290 290
287 287 287 287 287 287 288 288 288 288 288 288 289 289 289 289 289 290 291 292 292 292 292 292 291 290 290 290 289 289 289 289 289 289 289 289 289 289 289 289 289 289 289 289 289 289 289 290 290 290 289 289 289 289 289 289 289 289 288 288 289 289 289 289 289 289 289 289 289
286 286 286 287 287 287 287 287 287 288 288 288 288 288 288 289 289 290 290 291 292 292 292 292 291 291 290 290 290 290 289 289 289 289 289 289 289 289 289 289 289 289 289 289 289 289 289 289 290 289 289 289 289 289 289 289 289 288 288 288 288 288 288 288 288 288 288 288 288
286 286 286 286 286 286 286 287 287 287 287 287 288 288 288 289 289 289 290 290 290 291 291 291 291 290 290 290 290 290 289 289 289 289 289 289 289 289 289 289 289 289 289 289 289 289 289 289 289 289 289 289 289 289 289 288 288 288 287 287 287 287 287 287 287 287 287 287 287
285 285 285 285 285 285 286 286 286 286 286 287 287 288 288 288 289 289 289 289 290 290 290 290 290 290 290 290 290 290 290 289 289 289 289 289 289 289 288 288 288 289 289 290 290 291 290 290 289 288 288 288 288 288 288 288 288 287 287 287 287 287 286 286 287 287 287 287 286
284 285 285 285 285 285 285 285 285 286 286 286 287 287 288 288 289 289 289 289 289 290 290 290 290 290 291 290 291 291 290 290 290 290 289 289 289 289 289 288 288 289 289 290 291 291 291 291 290 289 288 287 287 287 287 287 287 287 287 287 287 286 286 286 286 286 286 286 286
284 284 284 284 285 284 285 285 285 286 286 286 287 287 287 288 288 288 289 289 289 289 290 290 290 291 291 291 291 291 291 291 291 290 290 289 289 289 288 288 289 289 290 291 291 291 291 291 290 290 289 288 287 287 286 286 287 287 287 287 287 286 286 286 286 286 286 286 287
283 283 284 284 284 284 284 285 285 285 285 286 286 287 287 287 288 288 288 289 289 289 289 290 290 291 291 291 291 291 291 291 291 290 290 290 289 289 289 289 289 289 290 291 291 291 291 291 290 290 289 288 288 287 287 287 287 286 286 286 286 286 286 286 286 286 286 286 286
283 283 283 283 283 283 284 284 284 284 285 286 286 286 287 287 287 287 288 288 289 289 289 290 290 290 290 290 291 291 291 291 291 290 290 290 289 289 289 289 289 289 290 291 291 290 290 290 290 290 289 289 288 287 287 286 286 286 286 286 286 286 286 285 285 286 286 286 286
283 282 283 283 283 283 283 284 284 285 285 285 286 286 287 286 286 287 287 288 288 289 290 290 291 290 290 290 290 290 290 291 290 290 290 289 289 289 288 289 289 289 290 291 290 290 290 290 290 289 289 289 288 287 287 286 286 286 286 285 285 285 285 285 285 285 285 285 286
282 282 282 282 282 283 283 284 284 284 285 285 285 286 286 286 287 287 287 288 289 290 290 291 290 290 290 291 290 290 290 290 290 290 289 289 289 288 288 288 288 289 290 290 290 290 290 289 289 289 289 289 288 287 286 286 286 285 285 285 285 285 285 285 285 285 285 285 285
282 282 282 282 282 283 283 284 284 284 285 285 285 286 286 286 287 287 288 289 290 290 290 290 290 290 290 290 290 290 290 289 290 290 289 289 288 288 288 288 288 288 289 290 290 289 289 289 289 289 288 288 288 287 286 286 285 285 285 285 285 285 285 285 285 285 285 285 285
282 282 282 282 282 283 283 283 284 284 285 285 285 285 285 286 287 287 288 289 290 290 290 290 289 289 289 289 289 289 289 289 289 289 289 289 288 288 287 288 288 289 289 290 289 289 289 289 288 288 288 288 287 286 286 286 285 285 285 285 284 285 285 285 285 285 285 285 285
282 282 282 282 282 283 283 283 284 284 284 284 284 285 285 285 286 286 287 288 289 289 290 290 289 289 289 289 289 289 289 290 289 289 289 288 288 288 287 287 288 289 289 289 289 289 288 288 288 288 288 288 287 286 285 285 285 284 284 284 284 284 284 285 285 285 285 285 285
282 282 282 282 282 282 282 283 283 284 284 284 284 285 285 285 286 286 287 288 288 289 289 289 289 289 289 289 289 289 289 289 289 289 288 288 287 287 287 287 288 289 289 289 289 289 288 288 288 288 287 287 286 286 285 285 284 284 284 284 284 284 284 285 285 285 285 285 285
282 282 282 282 282 282 282 282 283 283 283 283 284 284 285 285 286 286 287 287 288 288 288 289 289 289 289 289 289 289 290 289 289 288 288 287 287 287 287 287 287 288 289 289 288 288 288 288 288 287 287 286 286 285 285 284 284 284 284 283 283 284 284 284 284 285 285 285 285
282 282 282 282 282 282 282 282 282 282 283 283 283 284 284 285 285 286 287 287 287 287 287 287 288 288 288 288 288 289 289 289 288 288 288 288 287 287 287 287 287 288 288 289 288 288 288 287 287 287 287 286 285 285 285 284 284 284 283 283 283 283 284 284 284 284 284 284 284
282 282 282 282 282 282 282 282 282 282 282 282 283 283 283 284 285 285 286 287 287 286 286 287 287 287 287 288 288 288 288 288 288 288 288 288 288 288 288 287 288 288 288 289 288 288 288 287 287 287 286 286 285 285 285 284 284 283 283 283 283 283 284 284 284 284 284 283 284
282 282 282 282 281 281 281 281 281 281 281 281 282 282 283 283 284 285 285 286 286 286 286 286 286 286 287 287 287 287 288 288 288 288 288 288 289 289 289 288 288 288 289 289 289 288 288 288 287 287 286 286 285 285 285 284 284 283 283 283 283 283 284 284 284 284 284 284 284
282 282 282 281 281 281 281 281 281 281 281 281 281 282 282 283 283 284 285 285 286 285 285 285 286 286 286 287 286 286 286 287 287 287 288 288 288 288 288 287 287 287 288 289 289 289 289 289 288 287 287 286 285 285 284 284 283 283 283 283 283 283 283 283 284 284 283 284 284
281 281 281 281 281 281 281 280 281 281 281 281 281 282 282 283 283 284 284 284 285 285 285 285 285 285 286 286 286 285 285 286 286 287 287 287 287 287 287 286 286 286 286 287 288 289 289 289 288 287 286 286 285 285 284 284 283 283 283 283 283 283 283 283 283 283 283 283 284
Wind_Speed
9 8 7 6 6 6 5 4 3 3 2 3 3 2 2 2 4 4 4 4 4 4 4 4 3 3 3 3 2 2 2 3 4 5 5 5 5 6 6 6 7 7 7 6 6 5 5 6 5 5 4 4 5 5 4 4 5 5 6 6 6 6 7 8 8 8 9 8 6
10 9 8 7 6 5 4 4 3 2 2 2 2 2 2 4 5 5 4 4 4 4 4 3 3 3 4 4 3 3 3 3 5 5 6 6 6 7 7 7 7 7 7 7 5 4 4 6 5 5 4 4 5 5 5 4 5 6 7 8 6 6 6 7 7 8 8 8 6
9 8 7 7 6 5 4 4 3 3 2 2 3 4 4 5 5 5 4 4 4 4 4 3 3 4 4 4 4 4 3 4 5 5 6 6 6 7 7 8 8 9 9 7 5 4 4 5 5 5 4 4 5 5 5 5 5 6 7 7 5 5 5 5 6 6 6 6 6
8 8 8 8 8 7 5 4 4 4 5 5 6 6 6 5 5 5 4 4 5 4 4 3 3 4 4 4 4 4 4 5 5 6 6 7 7 8 9 9 9 10 9 8 7 6 6 6 5 5 5 5 6 5 5 5 5 6 5 5 5 5 5 5 5 5 5 5 6
7 7 7 7 8 7 5 4 5 5 5 5 5 5 5 5 5 4 4 4 4 4 4 5 4 4 4 5 5 5 5 6 6 6 7 7 8 8 9 10 10 10 9 8 8 8 7 7 5 5 5 5 5 5 5 6 6 6 5 5 5 5 5 5 5 5 5 5 5
3 3 3 1 1 2 4 6 6 6 6 5 5 5 5 4 4 4 5 4 5 5 6 6 5 5 5 5 5 5 6 6 6 6 7 7 7 8 10 11 11 10 9 8 9 9 8 6 5 5 5 5 5 5 6 6 6 6 6 5 5 5 5 6 5 5 5 6 6
5 4 5 7 9 9 9 9 8 8 7 6 6 6 6 5 5 6 6 5 5 5 5 5 5 5 5 5 6 6 5 5 6 7 7 7 8 9 10 11 11 11 10 9 9 8 7 6 5 5 5 5 5 6 7 7 6 6 6 6 5 5 6 6 6 6 6 8 8
9 9 9 10 10 10 10 10 9 8 7 6 7 7 8 7 7 7 7 6 5 5 5 5 6 6 6 6 6 6 6 6 6 7 7 7 9 10 10 11 12 11 11 10 9 9 8 6 6 5 6 5 5 6 7 9 8 8 8 7 6 5 5 6 6 6 7 8 8
8 9 9 10 10 11 11 11 10 10 9 8 8 8 8 8 8 7 7 6 5 5 5 5 6 7 7 7 7 7 6 6 7 7 7 8 9 9 10 11 12 11 10 10 10 10 9 7 6 6 6 6 6 7 8 10 10 10 8 7 6 6 6 7 7 8 8 8 8
9 9 9 10 10 11 11 11 11 11 10 9 9 9 8 8 7 7 6 5 6 6 6 6 7 7 7 8 7 7 6 6 7 7 8 8 9 10 10 10 11 11 10 9 9 10 10 8 8 7 7 7 8 9 9 10 10 10 8 6 6 7 8 8 9 9 8 8 8
9 9 9 9 10 10 11 11 10 10 10 9 9 9 8 8 7 7 6 6 7 7 7 7 7 7 7 7 7 7 6 6 6 7 8 9 10 10 11 11 11 10 10 9 9 9 9 8 9 9 9 8 9 9 10 10 10 9 8 7 7 8 9 9 8 8 8 8 8
10 10 10 9 9 10 10 10 9 9 9 9 9 8 7 7 7 7 8 8 8 8 8 8 8 7 7 6 7 7 7 7 7 8 9 10 11 11 11 11 11 11 10 10 9 8 8 9 10 11 11 10 8 8 9 10 10 9 9 8 8 9 9 9 8 7 6 7 7
10 10 10 9 10 10 11 10 9 8 8 8 8 7 7 6 7 8 8 9 8 7 7 8 8 8 7 7 7 7 7 7 8 8 9 10 11 11 11 11 11 11 11 10 9 9 9 10 11 12 11 10 8 8 9 10 10 9 9 9 9 9 9 9 8 7 7 7 7
10 10 10 10 10 10 10 10 8 8 8 8 8 7 7 7 7 7 8 8 8 8 7 7 7 7 7 7 7 7 7 8 9 10 10 11 11 11 11 11 11 11 10 10 10 11 11 11 11 11 11 11 10 10 10 10 9 9 9 9 10 10 10 9 8 7 7 7 7
11 10 10 10 10 10 9 9 7 7 7 8 7 7 6 6 7 7 7 8 8 8 7 7 7 8 8 9 8 8 8 9 10 10 11 11 11 11 11 11 11 11 11 10 11 12 12 13 12 11 11 11 11 10 10 10 10 9 9 9 10 10 10 9 8 8 7 7 7
11 11 11 11 10 10 9 8 7 6 7 7 7 7 6 6 6 7 8 8 7 7 7 8 8 8 8 9 9 9 9 9 10 11 11 11 12 12 12 11 11 11 12 12 12 12 12 12 11 11 11 11 11 10 10 10 10 10 10 10 11 11 10 9 9 8 8 8 8
11 11 11 11 11 10 9 8 7 7 7 7 8 7 7 6 6 7 7 8 7 7 7 8 8 8 8 8 8 8 8 9 10 10 11 11 12 12 12 11 11 12 12 12 12 12 12 11 11 11 11 11 10 10 10 10 10 10 11 11 11 11 10 9 9 8 8 8 8
11 11 11 11 11 11 10 9 9 8 8 9 8 8 7 7 7 7 7 8 7 8 9 9 8 8 8 8 8 8 8 9 10 10 11 11 11 11 11 11 11 12 12 12 12 12 12 11 11 10 10 9 9 9 10 10 10 10 11 11 11 10 10 9 9 8 8 8 8
11 11 11 11 11 10 10 10 10 9 9 9 9 8 8 8 8 8 8 8 8 9 9 9 9 9 9 9 9 9 9 10 11 11 11 11 11 11 11 11 11 12 12 12 12 11 11 11 11 10 10 9 9 9 10 10 10 10 10 11 10 10 10 9 9 8 8 7 7
11 11 11 10 10 10 10 10 10 10 9 9 9 9 9 9 9 8 8 8 9 9 9 10 10 10 10 10 10 10 10 9 11 11 12 12 11 11 11 11 12 12 12 12 11 11 11 11 11 10 10 10 10 10 10 10 10 10 10 10 10 10 10 9 9 8 8 7 7
11 11 10 10 10 10 10 10 10 10 10 10 10 10 10 9 9 9 9 9 9 9 10 10 10 10 10 11 11 11 10 9 10 11 11 11 11 11 11 11 11 11 11 11 11 11 11 10 10 10 10 10 10 10 10 9 9 10 10 10 10 10 10 9 9 8 8 7 7
10 10 10 10 10 10 10 10 10 10 10 10 10 10 10 9 9 9 8 8 9 9 10 10 10 10 10 11 11 11 10 10 10 10 11 11 11 11 10 10 11 11 11 11 11 10 10 10 10 10 10 10 10 10 10 9 9 10 10 11 10 10 10 9 8 8 8 8 8
10 10 10 10 10 10 10 10 10 10 10 10 10 10 9 9 9 8 8 8 8 9 10 9 9 10 10 10 11 11 11 11 11 11 11 11 11 11 10 10 11 11 11 10 9 9 9 9 9 9 9 9 10 10 10 9 9 9 10 11 11 10 9 8 8 7 7 7 8
10 9 9 9 10 10 10 10 10 10 10 9 9 9 9 9 9 9 9 9 9 9 9 8 9 9 10 11 11 12 12 12 12 12 11 11 11 10 10 10 10 10 9 8 8 8 8 7 8 8 8 8 9 9 9 9 9 9 10 10 10 9 8 8 7 7 7 8 7
10 10 10 9 10 10 10 10 10 10 9 9 9 9 8 8 8 9 9 9 10 10 10 9 9 9 10 10 11 11 11 11 12 12 11 11 11 10 10 9 9 9 8 9 11 11 10 9 8 7 7 8 8 8 8 8 9 9 9 9 9 8 8 8 8 7 7 7 7
10 10 10 10 10 10 11 11 10 10 10 9 9 8 8 8 8 9 9 10 9 9 9 9 9 9 9 9 10 10 10 10 11 11 11 11 11 11 10 9 9 8 9 11 13 14 13 12 11 9 8 7 7 7 7 8 8 9 8 8 8 7 7 7 7 7 7 6 6
10 10 10 10 11 11 11 10 10 10 10 9 9 9 8 8 7 8 9 9 9 8 8 7 8 8 8 8 9 10 10 10 10 11 11 11 12 11 11 10 9 8 10 13 14 14 14 14 13 11 9 7 7 7 7 7 8 8 8 7 7 7 7 7 7 6 6 5 5
10 10 10 11 11 11 10 10 10 10 10 9 9 8 8 8 8 8 8 8 8 7 6 5 6 6 6 7 8 9 10 10 10 11 11 12 12 12 11 10 9 10 12 14 14 14 13 13 13 12 10 8 7 7 7 7 7 6 6 6 6 6 6 6 6 5 5 5 4
10 10 10 11 10 10 10 10 10 10 9 9 9 9 9 9 8 8 8 7 7 5 4 3 3 4 5 7 8 9 10 11 10 11 11 12 13 12 12 11 11 12 13 15 14 13 13 12 12 11 10 9 7 6 5 5 5 5 5 5 5 5 6 5 5 5 5 4 4
10 10 10 10 10 10 10 10 10 9 8 8 8 9 9 9 8 8 7 6 6 5 4 4 4 5 6 6 7 8 9 9 10 11 12 13 13 13 12 12 11 12 13 14 14 13 12 12 11 11 11 10 8 6 5 5 5 5 5 5 5 6 6 6 6 5 5 4 4
9 9 9 9 9 9 9 10 9 9 8 7 7 8 8 8 8 7 6 5 5 5 5 5 6 6 6 6 6 7 8 9 10 11 12 13 13 13 12 12 12 12 12 14 13 13 12 12 11 11 11 10 8 6 5 5 5 5 5 5 6 6 6 5 5 5 5 5 4
8 8 9 9 9 9 9 9 9 9 8 8 7 7 6 6 6 6 5 4 5 5 6 7 7 7 7 7 7 7 8 9 10 11 11 12 12 12 12 11 11 11 12 14 13 13 12 12 11 11 10 9 8 6 6 6 6 6 6 6 6 6 6 5 5 5 5 5 4
8 8 8 8 8 8 8 8 8 8 8 8 7 7 6 5 5 4 4 4 5 6 7 8 8 8 8 8 8 8 9 9 10 11 12 12 12 12 11 10 10 10 12 13 13 12 12 11 10 10 9 8 7 6 6 6 5 5 5 6 6 6 6 6 5 5 5 5 4
8 8 8 8 8 8 8 8 8 7 7 7 7 7 6 5 5 4 4 4 5 7 8 8 8 8 8 8 8 8 8 8 10 11 12 12 11 11 10 9 8 9 12 13 12 12 11 10 9 9 8 7 6 6 6 6 5 5 5 6 6 5 5 5 5 5 5 5 4
7 7 7 8 8 7 7 7 7 7 6 6 6 6 6 6 6 5 5 6 6 7 8 9 9 9 8 8 8 8 8 9 10 11 11 11 11 11 10 9 9 10 12 13 12 11 10 9 9 8 7 6 5 5 5 6 6 6 6 6 6 6 5 5 5 5 5 6 5
6 7 7 7 7 7 7 7 6 6 6 6 6 6 6 6 5 5 6 6 7 8 8 9 9 8 8 8 8 9 9 10 11 11 11 10 10 10 10 10 10 11 12 12 12 11 10 9 8 7 6 5 4 4 4 5 5 5 5 5 5 5 5 5 5 5 6 6 6
6 6 6 7 7 7 7 6 5 5 6 6 6 6 6 5 5 5 5 6 7 8 8 8 9 8 8 9 9 10 10 11 11 11 10 9 9 10 10 10 10 11 11 12 11 11 10 9 8 7 5 4 4 4 4 4 4 4 4 5 5 5 4 4 5 5 5 6 6
6 6 6 6 6 6 6 5 5 6 6 6 6 6 5 5 5 5 5 6 7 8 8 9 9 9 9 9 10 11 11 11 11 10 10 9 9 9 10 10 9 9 10 11 10 10 9 9 8 7 5 4 4 4 4 3 3 3 3 4 4 4 3 3 3 4 4 5 5
6 6 6 6 6 6 5 6 6 6 6 6 6 5 5 5 5 5 5 6 7 8 8 9 9 9 9 10 10 11 11 11 10 10 9 9 10 10 10 9 8 8 8 9 9 9 8 8 8 7 6 5 4 4 3 3 3 3 3 3 3 3 3 3 2 3 3 4 4
6 6 6 6 6 6 6 6 6 6 6 6 6 6 5 5 5 5 6 6 7 7 8 8 9 9 9 10 10 11 11 10 10 10 9 10 10 11 11 10 9 8 9 9 9 9 9 9 8 8 7 5 4 4 3 3 3 3 3 3 2 2 2 2 2 2 2 3 3
6 6 6 6 6 6 6 7 6 6 6 6 6 5 5 5 5 6 6 6 7 7 7 7 8 9 9 9 9 9 10 10 9 9 9 10 10 10 10 9 9 8 8 9 9 10 10 10 10 9 8 6 5 4 3 3 3 3 3 3 3 2 2 2 1 1 2 2 2
Wind_Direction
205 205 205 205 201 198 195 188 181 180 183 182 177 173 154 108 81 65 50 38 44 53 60 60 62 62 58 43 28 29 47 65 73 73 70 70 74 79 83 88 92 93 93 92 92 95 98 99 97 94 90 89 86 79 69 59 61 64 68 71 72 72 72 72 73 73 73 73 75
206 205 204 202 200 195 185 170 164 168 173 169 161 141 108 81 77 72 62 50 51 58 64 64 61 60 56 46 35 37 51 67 76 76 72 69 71 75 79 81 82 83 84 83 86 92 97 99 97 95 93 90 89 84 77 64 66 68 70 70 71 71 71 71 72 72 72 71 71
206 205 203 199 195 187 176 161 158 145 112 62 49 52 60 68 74 76 72 64 63 65 67 68 65 61 57 51 43 41 47 62 74 77 75 69 68 71 76 78 77 76 75 72 71 75 85 92 91 90 89 86 87 86 83 73 70 71 71 70 70 72 72 72 71 71 71 70 69
210 209 204 197 192 185 175 162 150 121 88 58 49 48 54 63 71 76 76 71 65 64 65 66 63 60 56 55 53 50 51 56 68 74 75 72 68 70 73 75 75 74 74 74 72 72 74 79 80 81 82 82 82 83 84 82 76 75 73 72 72 74 75 75 72 72 73 73 71
219 218 213 205 196 184 167 143 123 103 88 72 65 62 63 66 72 76 76 72 67 64 63 65 63 60 57 59 58 56 54 55 62 69 73 73 70 70 71 73 72 72 73 74 75 74 73 74 75 75 75 75 73 75 80 86 84 81 77 73 71 71 72 74 72 73 75 77 76
245 250 248 256 86 82 81 78 80 80 79 76 73 71 69 72 76 78 79 79 75 70 66 63 63 61 59 59 57 55 54 54 59 66 72 74 72 72 72 72 71 70 69 71 73 74 74 75 76 74 71 69 64 63 68 79 83 82 79 74 68 67 68 70 71 72 75 79 81
42 43 47 50 54 56 58 60 63 65 67 72 75 76 76 77 80 82 82 81 76 68 62 58 59 60 60 60 57 55 54 56 60 65 69 73 74 73 73 72 69 67 65 65 68 69 71 73 76 75 72 68 65 59 59 66 73 77 77 73 67 64 65 67 68 69 71 73 75
60 60 60 60 63 65 67 68 70 70 69 70 74 77 79 80 81 80 78 75 71 66 62 58 59 61 64 65 63 60 59 60 62 64 67 73 75 76 75 74 71 68 65 62 64 66 67 68 71 72 71 69 68 63 62 65 70 73 74 74 71 69 68 69 69 70 70 69 69
61 60 60 61 64 67 69 70 72 73 74 73 74 74 75 77 77 77 75 73 72 70 69 65 63 63 64 66 66 63 61 61 63 65 68 71 74 76 76 75 74 71 68 64 66 68 68 68 67 66 66 67 68 66 66 67 70 72 72 73 75 77 78 79 77 76 75 72 70
61 61 61 62 65 68 71 70 70 71 72 73 72 71 71 72 73 75 76 77 75 74 73 71 68 66 65 65 64 63 62 62 65 67 69 71 72 73 74 75 76 75 73 69 69 70 71 71 69 67 66 67 68 67 66 66 69 70 70 71 75 79 81 81 82 82 82 80 78
61 62 64 66 67 70 72 72 70 69 69 71 70 69 69 69 72 76 80 81 78 76 75 75 72 70 68 67 67 67 67 67 70 71 72 72 72 73 73 75 76 77 76 73 72 73 73 74 74 73 71 68 68 68 67 66 69 72 74 76 78 79 81 82 84 86 87 89 88
61 62 64 67 68 70 72 71 70 68 68 69 68 67 66 67 72 77 80 81 79 77 75 74 73 71 69 68 70 72 75 77 79 79 77 75 75 75 75 76 77 77 77 75 75 76 77 78 78 77 75 71 69 69 70 71 73 76 79 82 82 81 81 82 83 86 88 90 89
59 61 63 64 66 69 70 70 69 67 66 67 66 65 64 64 70 75 79 80 78 76 74 73 72 72 71 70 72 74 77 80 82 82 81 79 78 78 78 78 78 78 78 77 77 78 79 79 80 79 79 76 75 76 77 78 79 81 82 84 82 80 78 77 77 79 80 81 78
57 58 60 62 64 66 68 68 67 64 63 64 64 65 65 64 67 71 76 78 77 76 75 74 74 75 75 76 77 79 80 82 83 83 82 81 80 80 80 80 80 80 80 79 79 80 81 81 81 81 82 82 81 80 81 82 82 82 82 81 79 77 74 71 69 70 72 73 71
54 55 57 60 62 64 65 65 64 62 60 61 61 62 63 65 66 69 73 77 77 77 77 78 79 80 80 80 81 82 84 84 84 83 83 83 82 82 82 82 82 82 82 82 80 80 80 81 81 81 81 81 81 80 80 81 81 79 77 75 74 72 69 65 63 62 64 67 67
53 53 55 58 61 63 64 64 63 61 59 59 58 59 61 64 66 70 73 77 78 80 81 83 84 85 85 84 84 84 84 83 83 83 83 83 83 84 84 84 83 83 83 83 81 80 79 80 80 80 80 80 79 78 78 78 77 75 73 71 70 68 66 63 60 58 58 60 62
54 55 56 59 61 63 65 66 65 63 61 60 58 57 58 60 64 68 72 78 82 86 87 87 88 89 89 89 87 85 83 82 81 81 82 83 83 84 84 84 84 84 84 84 83 82 82 82 81 81 80 80 80 79 78 77 76 74 73 71 69 68 66 64 61 59 57 57 58
55 56 57 59 62 65 66 68 68 67 64 62 59 58 57 59 63 68 72 77 83 87 88 87 86 87 87 88 87 85 83 82 82 82 83 83 83 84 84 84 84 84 84 84 84 85 85 85 84 83 82 82 83 82 81 79 78 77 76 74 72 71 68 65 63 61 59 57 57
57 57 58 59 62 64 66 68 69 68 67 64 62 59 58 59 63 68 74 77 81 84 86 86 85 85 85 87 87 86 85 84 85 85 85 85 85 85 85 85 85 85 84 84 84 85 85 86 86 86 86 86 85 84 83 82 81 81 79 78 76 73 70 67 65 63 61 59 58
57 57 58 60 62 64 65 66 68 69 69 67 65 63 61 59 61 66 73 79 82 84 86 87 88 89 89 89 89 88 87 86 86 87 87 86 86 86 86 87 87 87 86 86 86 86 86 87 88 89 90 90 89 88 86 85 85 84 83 80 77 74 71 69 67 65 63 60 59
56 57 59 61 62 64 65 67 68 70 70 70 69 67 65 63 61 64 69 77 82 84 86 88 90 92 93 92 91 90 90 88 87 86 86 85 84 84 84 84 85 85 85 85 86 87 87 89 90 91 92 91 90 89 89 88 87 86 84 82 79 76 73 70 69 66 64 61 58
58 59 60 62 64 66 68 70 71 72 72 72 71 71 69 67 64 64 67 73 80 84 87 88 90 91 92 92 92 91 90 88 86 84 83 82 82 81 80 80 79 80 80 80 81 83 85 87 88 89 89 89 89 89 88 88 87 85 84 83 81 78 75 72 70 69 66 64 60
60 61 63 64 65 68 70 71 72 72 72 72 73 73 73 72 69 67 67 71 78 83 86 88 89 89 89 90 90 90 89 88 86 84 83 82 81 80 79 77 77 77 77 76 77 79 81 83 83 84 84 85 86 86 86 87 86 86 85 84 82 80 78 76 74 73 70 68 64
60 62 63 65 66 68 69 69 70 70 70 71 72 74 75 75 74 71 70 71 77 81 86 89 92 92 92 91 91 91 91 91 89 87 85 83 82 80 78 76 75 75 75 75 77 79 81 82 82 81 81 81 82 83 84 86 87 88 87 87 86 85 83 81 78 75 73 71 69
61 63 65 67 68 68 69 68 68 68 68 68 69 70 71 73 73 73 73 72 75 80 86 92 95 96 95 95 95 95 95 94 93 91 89 86 83 80 78 76 75 74 74 76 78 80 82 83 83 82 81 80 80 80 81 81 83 84 86 87 89 89 88 85 80 76 74 73 74
61 63 64 67 68 68 68 68 68 67 66 65 65 65 66 68 71 73 73 72 74 78 84 91 95 97 98 99 100 100 99 97 95 93 90 88 85 82 79 77 76 76 76 77 78 79 80 81 82 82 82 81 82 81 80 78 77 78 80 82 85 86 86 84 81 77 75 75 78
60 61 63 65 66 66 66 66 65 63 61 60 60 61 62 64 67 70 71 72 73 74 77 84 90 95 98 101 101 101 100 98 96 94 92 90 87 84 81 79 78 78 78 79 79 80 80 81 82 83 83 83 82 82 81 81 78 77 77 76 76 77 77 78 77 76 74 73 78
58 59 60 61 61 62 61 61 60 58 57 55 56 58 60 63 66 68 70 72 72 71 70 72 81 88 93 95 96 97 98 99 98 96 94 91 88 85 83 82 81 81 82 82 81 80 80 82 83 84 85 86 84 82 81 80 79 77 75 73 72 70 69 69 69 68 69 69 73
57 57 57 58 58 58 57 56 56 55 54 54 56 58 61 62 64 65 68 72 73 73 71 68 76 83 88 92 95 97 98 98 97 96 94 91 89 87 86 85 85 84 84 83 82 82 81 81 81 82 83 83 82 80 78 77 76 74 72 71 68 66 64 62 60 58 58 60 65
58 58 59 59 60 59 58 57 56 54 52 52 55 59 62 64 64 64 65 69 74 78 81 83 82 82 84 89 93 95 96 95 94 93 92 91 90 89 88 87 87 86 86 86 85 83 82 80 79 78 78 78 79 78 78 77 75 73 71 68 67 65 64 62 57 54 51 49 53
61 62 63 64 64 64 63 61 58 56 53 52 53 57 62 65 65 65 66 70 77 84 87 88 86 84 82 81 83 87 91 94 94 94 94 93 93 92 92 92 91 91 91 90 88 86 83 80 79 78 78 78 79 80 80 79 77 74 70 66 64 62 62 62 57 52 47 45 45
64 64 65 66 68 70 71 69 63 59 57 56 56 57 60 64 66 67 68 73 83 87 89 89 89 87 85 84 85 89 94 98 99 100 99 99 98 98 97 96 95 93 92 90 87 84 82 79 78 78 78 79 81 81 81 80 77 75 71 67 63 60 58 57 55 50 46 43 42
65 66 67 67 69 73 77 77 73 68 64 63 66 66 66 67 71 72 73 78 87 92 93 94 94 93 93 93 95 97 100 103 104 103 102 101 99 98 96 94 93 90 88 85 82 79 77 76 75 76 76 77 79 79 78 76 75 72 70 67 64 61 58 56 54 49 44 40 39
65 67 69 68 68 71 75 80 81 79 76 74 78 78 78 78 84 86 87 90 97 100 102 102 101 101 101 102 102 103 103 103 103 101 100 98 96 94 92 90 88 85 82 79 76 74 72 70 69 69 69 68 70 70 70 70 69 68 67 67 66 63 60 57 53 48 42 36 34
62 65 67 68 67 67 69 74 81 85 86 83 87 88 88 86 90 92 94 97 101 104 105 106 107 108 108 107 104 102 99 97 96 95 95 95 94 92 91 89 86 82 79 75 71 68 66 64 62 61 60 61 62 63 64 65 65 65 66 67 66 65 62 58 53 47 41 34 28
60 60 63 65 65 65 65 67 74 81 85 83 84 86 86 85 86 90 93 96 97 97 99 100 102 103 103 101 98 94 92 92 93 95 96 96 96 94 92 90 87 82 77 73 68 63 58 55 53 53 54 57 59 61 62 63 64 64 65 67 66 65 63 61 55 49 43 35 26
65 62 61 62 63 63 64 65 69 74 76 77 77 77 78 78 80 85 90 94 93 92 92 91 91 91 91 91 89 89 89 92 95 98 99 98 97 95 93 90 87 83 78 74 68 61 54 48 44 44 47 56 60 62 62 62 63 64 65 67 68 68 67 66 62 57 51 43 31
74 71 67 66 66 66 68 70 70 70 71 71 71 71 70 71 72 76 81 87 90 91 90 88 86 85 84 85 85 86 87 89 91 93 94 94 93 93 92 91 88 85 81 78 73 67 60 51 44 40 41 52 59 61 59 57 60 64 67 70 74 75 76 75 73 71 67 61 48
76 76 76 76 76 76 75 74 72 70 68 68 69 68 67 65 66 67 71 77 83 86 87 86 85 84 83 83 83 83 83 83 84 84 86 87 89 91 92 92 90 87 83 79 76 74 70 63 52 44 40 48 56 58 54 47 50 58 66 73 79 83 85 84 82 83 84 82 72
74 76 78 80 79 78 75 72 69 68 67 68 69 69 67 67 67 68 70 74 78 81 84 85 84 84 83 83 82 82 80 79 78 78 80 84 86 87 88 88 86 82 76 69 66 66 67 67 59 49 42 44 52 56 54 40 34 41 53 64 68 75 80 83 80 82 84 89 88
74 76 77 78 77 75 73 71 70 69 69 70 71 72 72 72 72 72 74 77 79 81 83 84 85 86 86 86 85 85 84 81 79 78 79 81 84 85 85 84 80 74 65 56 51 51 55 61 59 52 45 41 45 50 49 40 26 26 34 49 51 54 56 60 63 63 63 67 78